Location: Katowice
(50.2611°N, 19.0242°E)
Time: 21:08:36
(UTC+02:00)

Tiros 1 - Pass Details

Date: 31 August 2019
Orbit: 630 x 664 km, 48.4° (Epoch: 22 September)

Event Time Altitude Azimuth Distance (km) Brightness Sun altitude
Rises 21:09:00 0° 216° (SW) 2,911 10.5 -15.0°
Reaches altitude 10° 21:11:36 10° 204° (SSW) 2,004 9.6 -15.4°
Maximum altitude 21:15:26 26° 148° (SSE) 1,231 8.0 -15.9°
Enters shadow 21:15:28 26° 147° (SSE) 1,231 8.0 -15.9°
